CW9197 Weather Reports


time (UTC)temp
F
wind
direction
speed
knots
gust
knots
rain 1hr
in
rain 24hr
in
rain mn
in
humidity
%
barometer
mb
20260507065503 51 101 2.6 4.3 0.00 0.00 0.00 42 1017.0
20260507064544 49 72 4.3 7.0 0.00 0.00 0.00 42 1017.0
20260507063504 50 53 3.5 6.1 0.00 0.00 0.00 42 1017.0
20260507062524 50 73 2.6 5.2 0.00 0.00 0.00 43 1017.0
20260507061523 49 77 3.5 7.0 0.00 0.00 0.00 43 1017.0
20260507060503 50 82 3.5 7.0 0.00 0.00 0.00 45 1017.0
20260507055504 48 62 4.3 6.1 0.00 0.00 0.00 46 1016.9
20260507054504 48 73 3.5 5.2 0.00 0.00 0.00 48 1016.9
20260507053504 47 71 3.5 4.3 0.00 0.00 0.00 50 1016.9
20260507052503 47 61 2.6 4.3 0.00 0.00 0.00 51 1016.9
20260507051503 46 65 2.6 5.2 0.00 0.00 0.00 52 1016.9
20260507050505 47 72 2.6 4.3 0.00 0.00 0.00 52 1016.9
20260507045504 46 81 1.7 3.5 0.00 0.00 0.00 54 1016.9
20260507044525 45 71 1.7 3.5 0.00 0.00 0.00 58 1016.9
20260507043605 44 69 1.7 2.6 0.00 0.00 0.00 59 1016.9
20260507042505 44 20 1.7 2.6 0.00 0.00 0.00 60 1016.9
20260507041524 43 1 0.9 1.7 0.00 0.00 0.00 62 1016.9
20260507040503 41 32 1.7 2.6 0.00 0.00 0.00 63 1016.9
20260507035503 41 96 0.9 1.7 0.00 0.00 0.00 65 1016.9
20260507034505 39 186 0.9 1.7 0.00 0.00 0.00 69 1016.8
20260507033504 39 189 0.9 0.9 0.00 0.00 0.00 77 1016.8
20260507032504 38 190 0.0 0.9 0.00 0.00 0.00 79 1016.7
20260507031503 36 189 0.0 0.9 0.00 0.00 0.00 82 1016.7
20260507030505 37 190 0.9 0.9 0.00 0.00 0.00 80 1016.7
20260507025525 35 190 0.9 0.9 0.00 0.00 0.00 80 1016.5
20260507024524 33 190 0.9 0.9 0.00 0.00 0.00 83 1016.4
20260507023524 32 190 0.9 0.9 0.00 0.00 0.00 83 1016.4
20260507022503 32 190 0.9 0.9 0.00 0.00 0.00 81 1016.4
20260507021505 31 190 0.9 0.9 0.00 0.00 0.00 82 1016.5
20260507020504 30 190 0.9 0.9 0.00 0.00 0.00 87 1016.4
20260507015504 31 189 0.9 0.9 0.00 0.00 0.00 89 1016.3
20260507014503 31 189 0.9 1.7 0.00 0.00 0.00 88 1016.2
20260507013503 32 173 0.9 0.9 0.00 0.00 0.00 89 1016.1
20260507012504 32 173 0.9 0.9 0.00 0.00 0.00 86 1016.1
20260507011504 32 173 0.9 0.9 0.00 0.00 0.00 87 1016.1
20260507010504 33 173 0.9 1.7 0.00 0.00 0.00 84 1016.1
20260507005504 32 173 0.9 0.9 0.00 0.00 0.00 80 1016.1
20260507004503 33 173 0.9 0.9 0.00 0.00 0.00 78 1016.0
20260507003504 33 173 0.0 0.9 0.00 0.00 0.00 81 1015.9
20260507002505 32 172 1.7 1.7 0.00 0.00 0.00 73 1015.9
20260507001524 34 16 0.9 4.3 0.00 0.00 0.00 69 1015.9
20260507000544 34 18 1.7 3.5 0.00 0.00 0.00 69 1015.8
20260506235505 34 349 1.7 3.5 0.00 0.00 0.00 76 1015.7
20260506234505 34 254 0.9 1.7 0.00 0.00 0.00 75 1015.7
20260506233504 34 254 0.9 1.7 0.00 0.00 0.00 73 1015.7
20260506232525 34 264 0.9 1.7 0.00 0.00 0.00 73 1015.6
20260506231503 34 282 0.9 1.7 0.00 0.00 0.00 71 1015.5
20260506230605 34 242 0.9 1.7 0.00 0.00 0.00 68 1015.5
20260506225504 36 323 0.9 2.6 0.00 0.00 0.00 63 1015.3
20260506224504 36 339 2.6 5.2 0.00 0.00 0.00 64 1015.2
20260506223503 35 282 1.7 3.5 0.00 0.00 0.00 66 1015.2
20260506222503 35 243 1.7 3.5 0.00 0.00 0.00 64 1015.1
20260506221505 35 255 2.6 4.3 0.00 0.00 0.00 62 1015.1
20260506220504 35 258 1.7 2.6 0.00 0.00 0.00 64 1014.9
20260506215504 35 251 1.7 2.6 0.00 0.00 0.00 66 1014.8
20260506214503 35 244 1.7 2.6 0.00 0.00 0.00 68 1014.7
20260506213503 36 218 0.9 1.7 0.00 0.00 0.00 75 1014.7
20260506212504 36 217 0.9 1.7 0.00 0.00 0.00 80 1014.6
20260506211504 36 216 0.9 1.7 0.00 0.00 0.00 80 1014.5
20260506210504 36 215 0.9 1.7 0.00 0.00 0.00 77 1014.5
20260506205503 37 214 1.7 1.7 0.00 0.00 0.00 73 1014.4
20260506204504 37 225 1.7 2.6 0.00 0.00 0.00 70 1014.4
20260506203504 38 224 0.9 1.7 0.00 0.00 0.00 69 1014.4
20260506202504 38 224 0.9 1.7 0.00 0.00 0.00 63 1014.4
20260506201504 39 224 0.9 1.7 0.00 0.00 0.00 61 1014.3
20260506200503 39 233 1.7 4.3 0.00 0.00 0.00 63 1014.2
20260506195503 39 207 0.9 1.7 0.00 0.00 0.00 63 1014.2
20260506194504 39 207 0.9 0.9 0.00 0.00 0.00 64 1014.1
20260506193504 38 207 0.9 0.9 0.00 0.00 0.00 64 1014.1
20260506192524 39 207 0.9 0.9 0.00 0.00 0.00 62 1014.1
20260506191503 39 207 0.9 1.7 0.00 0.00 0.00 58 1014.0
20260506190503 40 209 0.9 0.9 0.00 0.00 0.00 57 1013.9
20260506185505 41 210 0.9 0.9 0.00 0.00 0.00 54 1014.0
20260506184504 40 207 0.9 1.7 0.00 0.00 0.00 57 1013.9
20260506183504 41 202 0.9 1.7 0.00 0.00 0.00 52 1013.8
20260506182503 42 218 0.9 1.7 0.00 0.00 0.00 53 1013.7
20260506181504 42 224 0.9 1.7 0.00 0.00 0.00 53 1013.7
20260506180524 43 210 1.7 3.5 0.00 0.00 0.00 50 1013.5
20260506175504 44 203 2.6 3.5 0.00 0.00 0.00 49 1013.5
20260506174503 44 201 1.7 2.6 0.00 0.00 0.00 50 1013.4
20260506173503 45 201 1.7 2.6 0.00 0.00 0.00 50 1013.3
20260506172505 46 209 1.7 2.6 0.00 0.00 0.00 49 1013.2
20260506171504 47 218 1.7 3.5 0.00 0.00 0.00 45 1013.1
20260506170504 47 219 1.7 4.3 0.00 0.00 0.00 45 1013.1
20260506165503 48 214 2.6 6.1 0.00 0.00 0.00 44 1013.0
20260506164503 48 235 2.6 6.1 0.00 0.00 0.00 38 1012.9
20260506163505 49 226 3.5 6.1 0.00 0.00 0.00 39 1012.8
20260506162504 49 236 2.6 5.2 0.00 0.00 0.00 38 1012.8
20260506161504 49 231 1.7 4.3 0.00 0.00 0.00 41 1012.8
20260506160503 49 218 1.7 3.5 0.00 0.00 0.00 38 1012.7
20260506155503 49 260 4.3 10.4 0.00 0.00 0.00 37 1012.7
20260506154504 50 264 3.5 8.7 0.00 0.00 0.00 37 1012.7
20260506153504 50 217 2.6 6.1 0.00 0.00 0.00 38 1012.6
20260506152504 51 205 2.6 6.1 0.00 0.00 0.00 40 1012.6
20260506151503 51 207 3.5 5.2 0.00 0.00 0.00 36 1012.5
20260506150503 51 229 3.5 8.7 0.00 0.00 0.00 36 1012.5
20260506145525 51 208 3.5 7.0 0.00 0.00 0.00 37 1012.5
20260506144504 51 208 3.5 6.1 0.00 0.00 0.00 36 1012.4
20260506143504 49 233 2.6 7.8 0.00 0.00 0.00 40 1012.4
20260506142523 48 216 1.7 4.3 0.00 0.00 0.00 43 1012.4
20260506141503 49 213 2.6 5.2 0.00 0.00 0.00 42 1012.4
20260506140504 51 212 2.6 5.2 0.00 0.00 0.00 39 1012.3
20260506135504 51 226 3.5 9.6 0.00 0.00 0.00 39 1012.2
20260506134504 53 215 3.5 6.1 0.00 0.00 0.00 37 1012.1
20260506133503 51 283 4.3 7.8 0.00 0.00 0.00 33 1012.1
20260506132503 52 277 4.3 11.3 0.00 0.00 0.00 34 1012.0
20260506131504 50 280 4.3 13.9 0.00 0.00 0.00 33 1012.0
20260506130503 52 221 3.5 7.8 0.00 0.00 0.00 36 1011.9
20260506125524 48 240 4.3 12.2 0.00 0.00 0.00 36 1011.9
20260506124504 49 244 3.5 8.7 0.00 0.00 0.00 38 1011.9
20260506123504 54 209 5.2 7.8 0.00 0.00 0.00 36 1011.7
20260506122503 53 235 3.5 7.8 0.00 0.00 0.00 36 1011.7
20260506121505 50 237 4.3 7.8 0.00 0.00 0.00 38 1011.7
20260506120504 49 267 6.1 18.2 0.00 0.00 0.00 37 1011.7
20260506115504 50 286 4.3 8.7 0.00 0.00 0.00 38 1011.6
20260506114504 50 249 3.5 8.7 0.00 0.00 0.00 40 1011.6
20260506113503 52 209 2.6 6.1 0.00 0.00 0.00 41 1011.5
20260506112505 50 236 4.3 10.4 0.00 0.00 0.00 41 1011.4
20260506111504 50 246 3.5 8.7 0.00 0.00 0.00 38 1011.4
20260506110504 52 251 5.2 11.3 0.00 0.00 0.00 37 1011.3
20260506105525 51 254 5.2 11.3 0.00 0.00 0.00 38 1011.2
20260506104504 54 228 5.2 13.0 0.00 0.00 0.00 39 1011.0
20260506103503 52 256 6.1 13.9 0.00 0.00 0.00 39 1011.0
20260506102505 54 225 3.5 5.2 0.00 0.00 0.00 41 1010.9
20260506101504 52 280 6.1 13.0 0.00 0.00 0.00 37 1010.8
20260506100524 53 210 4.3 8.7 0.00 0.00 0.00 41 1010.8
20260506095505 51 247 3.5 9.6 0.00 0.00 0.00 41 1010.8
20260506094504 54 217 3.5 8.7 0.00 0.00 0.00 43 1010.6
20260506093523 53 205 5.2 10.4 0.00 0.00 0.00 43 1010.5
20260506092503 49 254 5.2 11.3 0.00 0.00 0.00 43 1010.5
20260506091504 53 222 2.6 7.0 0.00 0.00 0.00 44 1010.3
20260506090504 51 208 5.2 10.4 0.00 0.00 0.00 44 1010.3
20260506085504 51 213 3.5 6.1 0.00 0.00 0.00 49 1010.3
20260506084503 49 220 4.3 14.8 0.00 0.00 0.00 52 1010.3
20260506083505 49 225 3.5 9.6 0.00 0.00 0.00 51 1010.2
20260506082524 49 214 4.3 9.6 0.00 0.00 0.00 51 1010.1
20260506081504 48 249 4.3 10.4 0.00 0.00 0.00 48 1010.0
20260506080503 51 225 3.5 13.0 0.00 0.00 0.00 50 1009.9
20260506073504 48 240 4.3 9.6 0.00 0.00 0.00 52 1009.7
20260506072504 47 254 5.2 12.2 0.00 0.00 0.00 51 1009.6
20260506071504 47 259 5.2 9.6 0.00 0.00 0.00 51 1009.6
20260506070503 48 263 3.5 14.8 0.00 0.00 0.00 54 1009.5